Powrót do katalogu

NINGXIA-1 9

AktywnyNaukaLEO
NORAD 49021·PAYLOAD·🇨🇳 China

Wystrzelony Jul 9, 2021 z Taiyuan Satellite Launch Center

Loading…

Następne Przeloty (najbliższe 24 godziny)

TLE

ŚwieżeSource: Space-Track

Epoka: Sep 14, 2026, 14:23 UTC

1 49021U 21064D   26257.59989023 -.00000273  00000-0 -81334-4 0  9993
2 49021  45.0018 183.0453 0009571 318.6517  41.3595 14.08519911266834

Śledź NINGXIA-1 9 w czasie rzeczywistym z AllMySat

Download on the App Store